Regional Weather Roundup
Issued by NWS

Home | Current Version | Previous Version | Text Only | Print | Product List | Glossary Off
Versions: 1 2 3 4 5 6 7 8 9 10 11 12 13 14 15 16 17 18 19 20 21 22 23 24 25 26 27 28 29 30 31 32 33 34 35 36 37 38 39 40 41 42 43 44 45 46 47 48 49 50

000
ASUS43 KLSX 212159
RWRMO

WEATHER SUMMARY FOR MISSOURI
NATIONAL WEATHER SERVICE SPRINGFIELD MO
500 PM CDT THU AUG 21 2014

NOTE: "FAIR" INDICATES FEW OR NO CLOUDS BELOW 12,000 FEET WITH NO
       SIGNIFICANT WEATHER AND/OR OBSTRUCTIONS TO VISIBILITY.
       CURRENT SKY AND/OR WEATHER CONDITIONS ARE NOT AVAILABLE FOR
       CHILLICOTHE AND FARMINGTON.

MOZ001>031-035>038-043-044-053-054-212300-
...NORTHERN AND WESTERN MISSOURI...

CITY           SKY/WX    TMP DP  RH WIND       PRES   REMARKS
KANSAS CTY INT MOSUNNY   94  73  50 S13       29.85F HX 103
KANSAS C DTWN  SUNNY     96  71  44 S17G23    29.84F HX 103
LEE`S SUMMIT   SUNNY     94  70  45 S14G23    29.88F HX 100
ST JOSEPH      MOSUNNY   92  76  59 S10       29.83R HX 104
KIRKSVILLE     PTSUNNY   88  75  65 SW8       29.91S HX  97

$$
MOZ066>068-077>081-088>096-101>105-212300-
...SOUTHWEST MISSOURI...

CITY           SKY/WX    TMP DP  RH WIND       PRES   REMARKS
SPRINGFIELD    MOSUNNY   96  62  32 S13       29.97S HX  97
JOPLIN         MOSUNNY   95  69  42 S16G23    29.94F HX 100

$$
MOZ032>034-039>042-045>050-055>058-069>072-212300-
...CENTRAL MISSOURI...

CITY           SKY/WX    TMP DP  RH WIND       PRES   REMARKS
COLUMBIA       MOSUNNY   92  72  51 S10       29.92F HX  99
JEFFERSON CITY SUNNY     95  71  45 S9        29.90F HX 102
ROLLA          MOSUNNY   92  71  50 S8        29.95F HX  98
SEDALIA        MOSUNNY   94  71  47 S12       29.92S HX 101
OSAGE BEACH    PTSUNNY   97  70  41 S9        29.92F HX 103

$$
MOZ051-052-059>065-212300-
...EAST CENTRAL MISSOURI...

CITY           SKY/WX    TMP DP  RH WIND       PRES   REMARKS
ST LOUIS INTL  PTSUNNY   95  73  48 S12       29.94F HX 104
SPIRIT OF STL  MOSUNNY   94  74  52 SW6       29.92F HX 104
ST CHARLES     MOSUNNY   93  73  52 SW9       29.91F HX 102

$$
MOZ072>076-082>087-097>100-106>115-212300-
...SOUTH CENTRAL AND SOUTHEAST MISSOURI...

CITY           SKY/WX    TMP DP  RH WIND       PRES   REMARKS
CAPE GIRARDEAU PTSUNNY   89  76  65 S10       29.98F HX 100
FARMINGTON     MOSUNNY   95  70  43 S13       29.99F HX 101
POPLAR BLUFF   PTSUNNY   90  73  57 S12       29.97F HX  98
WEST PLAINS    SUNNY     93  68  43 S10       30.01F HX  97

$$



USA.gov is the U.S. government's official web portal to all federal, state and local government web resources and services.